[[{"header":{"parameterUnit":"m.s-1","parameterCategory":1,"la1":30.2992,"la2":30.254,"lo1":-89.0895,"lo2":-89.0443,"dy":0.0025,"dx":0.0025,"nx":19,"ny":19,"refTime":"2026-04-25T09:00:00:Z","depth":0,"parameterNumber":2,"parameterNumberName":"U-component_of_WINDS"},"data":[0,0,0,-1.1971,-1.1969,-1.1899,-1.1898,-1.1828,-1.1827,0,0,0,0,0,0,0,0,0,0,0,-1.2004,-1.2004,-1.1971,-1.1969,-1.1899,-1.1898,-1.1828,-1.1827,0,0,0,0,0,0,0,0,0,0,0,-1.2004,-1.2004,-1.2004,-1.1969,-1.1899,-1.1898,-1.1828,-1.1874,0,0,0,0,0,0,0,0,0,0,-1.1939,-1.1982,-1.2004,-1.2004,-1.1969,-1.1899,-1.1898,-1.1876,-1.1871,-1.1868,0,-1.187,0,-1.1848,-1.1824,-1.1824,0,0,0,-1.196,-1.1986,-1.1956,-1.2004,-1.1968,-1.1899,-1.1928,-1.1873,-1.1868,-1.1862,-1.1868,-1.1865,-1.1846,-1.1824,-1.1823,-1.184,-1.184,0,0,-1.1964,-1.1998,-1.196,-1.1953,-1.1966,-1.193,-1.1926,-1.187,-1.1878,-1.1868,-1.1863,-1.1845,-1.1823,-1.1823,-1.1839,-1.184,0,0,0,-1.1981,-1.2001,-1.1971,-1.1957,-1.1943,-1.1928,-1.1923,-1.1881,-1.1868,-1.1862,-1.1844,-1.1823,-1.1822,-1.1839,-1.1839,-1.1898,0,0,0,-1.1983,-1.2011,-1.1974,-1.1994,-1.1944,-1.1911,-1.1936,-1.1872,-1.1865,-1.1845,-1.1823,-1.1822,-1.1838,-1.1839,-1.1895,-1.192,0,0,0,-1.2004,-1.2013,-1.2007,-1.1996,-1.1967,-1.1911,-1.1895,-1.187,-1.1855,-1.1824,-1.1822,-1.1837,-1.1839,-1.1893,-1.1916,-1.1935,0,0,0,-1.2036,-1.206,-1.2009,-1.2028,-1.1968,-1.1948,-1.1895,-1.1879,-1.1859,-1.1823,-1.1838,-1.1839,-1.1892,-1.1913,-1.1933,-1.1957,-1.1971,0,0,-1.2085,-1.2067,-1.2076,-1.2028,-1.2027,-1.1956,-1.1963,-1.1913,-1.1878,-1.1854,-1.1854,-1.1896,-1.1916,-1.1934,-1.2034,-1.2045,0,0,0,-1.2103,-1.211,-1.2102,-1.2086,-1.2049,-1.2019,-1.1964,-1.1946,-1.1924,-1.1873,-1.1907,-1.1918,-1.1927,-1.1937,-1.1947,-1.1953,-1.1845,-1.1845,-1.1845,-1.2221,-1.2176,-1.2188,-1.2136,-1.2121,-1.2064,-1.2048,-1.2013,-1.1972,-1.1981,-1.1974,-1.204,-1.2053,-1.206,-1.2067,-1.1983,-1.1983,-1.1983,-1.1983,-1.2289,-1.2291,-1.2237,-1.2229,-1.2183,-1.2175,-1.2122,-1.2094,-1.208,-1.2041,-1.2047,-1.201,-1.2073,-1.2077,-1.1987,-1.1987,-1.1986,-1.1986,-1.1985,-1.2361,-1.2355,-1.2332,-1.2304,-1.2288,-1.2233,-1.2223,-1.218,-1.214,-1.2146,-1.2134,-1.2133,-1.2126,-1.2143,-1.2143,-1.2144,-1.2144,-1.2144,-1.2144,-1.2445,-1.2418,-1.2415,-1.2378,-1.2362,-1.2336,-1.228,-1.2263,-1.2233,-1.2203,-1.2202,-1.2161,-1.2088,-1.2071,-1.2147,-1.2147,-1.2146,-1.2146,-1.2146,-1.2531,-1.2505,-1.25,-1.2484,-1.2438,-1.2425,-1.237,-1.234,-1.2319,-1.2316,-1.2273,-1.2226,-1.2204,-1.2196,-1.2182,-1.2282,-1.2282,-1.2282,-1.2282,-1.2592,-1.2577,-1.2563,-1.2541,-1.2514,-1.2465,-1.2461,-1.2418,-1.237,-1.2354,-1.2333,-1.231,-1.2304,-1.2286,-1.2276,-1.2262,-1.2381,-1.2381,-1.2381,-1.2642,-1.2623,-1.2628,-1.2581,-1.2541,-1.2509,-1.2504,-1.2481,-1.242,-1.2384,-1.2342,-1.2337,-1.23,-1.229,-1.2253,-1.2239,-1.2212,0,0]},{"header":{"parameterUnit":"m.s-1","parameterCategory":1,"la1":30.2992,"la2":30.254,"lo1":-89.0895,"lo2":-89.0443,"dy":0.0025,"dx":0.0025,"nx":19,"ny":19,"refTime":"2026-04-25T09:00:00:Z","depth":0,"parameterNumber":3,"parameterNumberName":"V-component_of_WINDS"},"data":[0,0,0,1.8939,1.894,1.8986,1.8986,1.9013,1.9013,0,0,0,0,0,0,0,0,0,0,0,1.8909,1.8909,1.8939,1.894,1.8986,1.8986,1.9013,1.9013,0,0,0,0,0,0,0,0,0,0,0,1.891,1.8909,1.8909,1.894,1.8985,1.8986,1.9013,1.8989,0,0,0,0,0,0,0,0,0,0,1.895,1.8907,1.8909,1.8909,1.894,1.8985,1.8986,1.8988,1.8991,1.898,0,1.8968,0,1.8991,1.9013,1.9013,0,0,0,1.8952,1.8905,1.8932,1.8909,1.8941,1.8985,1.8968,1.899,1.8992,1.8982,1.8969,1.8971,1.8991,1.9013,1.9013,1.8917,1.8916,0,0,1.8949,1.8908,1.8931,1.8933,1.8927,1.8967,1.8969,1.8992,1.8973,1.8969,1.8972,1.8992,1.9013,1.9013,1.8918,1.8916,0,0,0,1.8934,1.8906,1.8934,1.8931,1.8942,1.8968,1.8971,1.8972,1.8985,1.8972,1.8992,1.9013,1.9013,1.8919,1.8917,1.8828,0,0,0,1.8933,1.8897,1.8932,1.8907,1.8941,1.8958,1.895,1.8983,1.8987,1.8992,1.9013,1.9013,1.892,1.8918,1.8833,1.8791,0,0,0,1.8912,1.8895,1.8896,1.8905,1.8923,1.8959,1.8973,1.8985,1.8999,1.9013,1.9013,1.8921,1.8918,1.8837,1.8799,1.8752,0,0,0,1.8877,1.8816,1.8894,1.8834,1.8923,1.8905,1.8974,1.8962,1.8964,1.9013,1.892,1.8917,1.8839,1.8803,1.8757,1.8705,1.868,0,0,1.8777,1.8803,1.877,1.8842,1.8799,1.8901,1.8845,1.8884,1.8922,1.8916,1.8914,1.8831,1.8799,1.8753,1.8559,1.8539,0,0,0,1.8725,1.87,1.8698,1.8699,1.8729,1.875,1.8803,1.8818,1.8814,1.8911,1.8805,1.8787,1.8761,1.8738,1.8721,1.8701,1.8906,1.8906,1.8906,1.8523,1.8576,1.8525,1.8583,1.8583,1.8638,1.8642,1.867,1.8723,1.8697,1.8694,1.857,1.8542,1.8529,1.8507,1.8673,1.8673,1.8673,1.8673,1.8379,1.8352,1.8426,1.8402,1.8457,1.8437,1.8487,1.8525,1.8513,1.8577,1.8557,1.862,1.8506,1.8489,1.8666,1.8667,1.8668,1.8669,1.8669,1.8251,1.8247,1.8268,1.8273,1.8271,1.8332,1.8317,1.8368,1.8416,1.8397,1.8398,1.84,1.8406,1.8395,1.8394,1.8394,1.8393,1.8393,1.8393,1.8109,1.8135,1.8117,1.8143,1.815,1.8165,1.8219,1.8226,1.8246,1.8285,1.8285,1.8338,1.8486,1.852,1.8386,1.8387,1.8388,1.8389,1.8389,1.794,1.7987,1.7958,1.7965,1.7999,1.7992,1.8059,1.8068,1.8081,1.8071,1.813,1.8232,1.8261,1.8274,1.8303,1.8121,1.8121,1.8121,1.8121,1.783,1.785,1.7833,1.7839,1.7852,1.7909,1.7872,1.7913,1.7962,1.7973,1.8007,1.805,1.8062,1.8084,1.8102,1.8129,1.7907,1.7907,1.7907,1.7727,1.7752,1.7711,1.7762,1.7793,1.7816,1.7783,1.7785,1.7851,1.7899,1.7981,1.799,1.8061,1.8082,1.8129,1.8156,1.8208,0,0]}]]